Tracking 27111 objects as of 28-Mar-2023
HD Live streaming from Space Station
objects crossing your sky now

STARLINK-5394

Track STARLINK-5394 now!
10-day predictions
STARLINK-5394 is classified as:


NORAD ID: 54830
Int'l Code: 2022-177L
Perigee: 565.1 km
Apogee: 567.3 km
Inclination: 43.0 °
Period: 95.8 minutes
Semi major axis: 6937 km
RCS: Unknown
Launch date: December 28, 2022
Source: United States (US)
Launch site: AIR FORCE EASTERN TEST RANGE (AFETR)
Your satellite tracking list
Your tracking list is empty




NASA's NSSDC Master Catalog

Two Line Element Set (TLE):
1 54830U 22177L   23086.79551825  .00007704  00000-0  58469-3 0  9993
2 54830  43.0037 230.1678 0001576 284.0164  76.0503 15.02539018 14819
Source of the keplerian elements: AFSPC